Content
SEND FEEDBACK

Daily
Averages
Monthly
Summary
United States of America

WILMINGTON, NORTH CAROLINA


Home > North America > United States > North Carolina
Elevation: 72 feet     Latitude: 34 16N     Longitude: 077 54W

WEATHER
 
SELECT A DAY
Number of Records: 212,284;   Date Range: 1/1/95 - 10/20/14
 
SHARE

PRINT THIS DATA

[ ← Previous Day ]
WEATHER ALMANAC - MARCH 22, 2013
[ Next Day → ]
[ °C ]   °F
Weather ElementAverageHighLow
Temperature41.5 °F53.1 °F (4:53 pm)32 °F (3:53 am)
Dewpoint18.4 °F32 °F (10:53 pm)12 °F (9:53 am)
Humidity41.5 %63 % (10:53 pm)25 % (2:53 pm)
Barometer30.04 in30.11 in (8:53 am)30.00 in (1:53 am)
Wind Speed7.1 mph12.7 mph (6:53 pm)
Wind Gust18.4 mph (4:53 pm)
Weather ElementAverage
Visibility10 mi
Wind DirectionWSW (235.2 °)

Weather ElementTotal
Precipitation---
Heating Degree Days22.5 (Base 65)
Averaged from 23 records on March 22, 2013
WEATHER CONDITIONS BREAKOUT
WIND DIRECTION BREAKOUT
WEATHER BY HOUR - MARCH 22, 2013
[ °C ]   °F
Local TimeTemperatureDewpointHumidityBarometerVisibilityWind DirectionWind SpeedGust SpeedPrecipitationEventsConditions
1:53 AM34.0 °F15.1 °F46 %30.00 in10.0 miNorth (10°)9.2 mphClear
2:53 AM33.1 °F15.1 °F48 %30.01 in10.0 miNorth (360°)5.8 mphClear
3:53 AM32.0 °F12.9 °F45 %30.01 in10.0 miNorth (350°)8.1 mphClear
4:53 AM32.0 °F12.9 °F45 %30.02 in10.0 miNorth (360°)8.1 mphClear
5:53 AM32.0 °F14.0 °F48 %30.03 in10.0 miNorth (350°)6.9 mphClear
6:53 AM32.0 °F14.0 °F48 %30.06 in10.0 miNorth (350°)3.5 mphClear
7:53 AM32.0 °F16.0 °F52 %30.08 in10.0 miCalmClear
8:53 AM34.0 °F16.0 °F48 %30.11 in10.0 miNW (320°)6.9 mphClear
9:53 AM37.0 °F12.0 °F36 %30.11 in10.0 miNorth (360°)4.6 mphClear
10:53 AM41.0 °F14.0 °F33 %30.10 in10.0 miWest (270°)6.9 mphClear
11:53 AM43.0 °F14.0 °F31 %30.09 in10.0 miVariable4.6 mphClear
12:53 PM46.0 °F12.9 °F26 %30.08 in10.0 miWSW (250°)8.1 mphClear
1:53 PM48.0 °F14.0 °F26 %30.05 in10.0 miVariable5.8 mph16.1 mphClear
2:53 PM50.0 °F15.1 °F25 %30.02 in10.0 miWSW (250°)9.2 mphScattered Clouds
3:53 PM52.0 °F17.1 °F25 %30.01 in10.0 miWest (260°)9.2 mphMostly Cloudy
4:53 PM53.1 °F18.0 °F25 %30.00 in10.0 miWest (260°)11.5 mph18.4 mphClear
5:53 PM52.0 °F18.0 °F26 %30.00 in10.0 miWest (260°)9.2 mphScattered Clouds
6:53 PM48.9 °F26.1 °F41 %30.01 in10.0 miWSW (240°)12.7 mphClear
7:53 PM46.9 °F26.1 °F44 %30.02 in10.0 miSW (230°)10.4 mphClear
8:53 PM44.1 °F28.0 °F53 %30.04 in10.0 miSW (230°)5.8 mphClear
9:53 PM42.1 °F28.9 °F60 %30.04 in10.0 miSW (220°)4.6 mphClear
10:53 PM44.1 °F32.0 °F63 %30.06 in10.0 miSW (230°)5.8 mphClear
11:53 PM45.0 °F32.0 °F60 %30.06 in10.0 miWSW (250°)5.8 mphClear
Hourly data recorded from KILM, located miles away from Wilmington, North Carolina







STORIES FROM OUR PARTNERS